Location: Saint Louis
(38.6272°N, 90.1978°W)
Time: 11:49:00
(UTC-05:00)

ISS - Pass Details

Date: 07 August 2013
Orbit: 402 x 403 km, 51.6° (Epoch: 27 June)

Event Time Altitude Azimuth Distance (km) Brightness Sun altitude
Rises 22:10:30 0° 289° (WNW) 2,324 1.6 -21.5°
Reaches altitude 10° 22:13:52 10° 326° (NW) 1,460 0.6 -22.0°
Maximum altitude 22:14:57 11° 346° (NNW) 1,386 0.2 -22.1°
Drops below altitude 10° 22:16:03 10° 5° (N) 1,459 0.0 -22.3°
Enters shadow 22:19:06 - 40° (NE) 2,221 0.5 -22.7°
